Location: ?
(35.4554°N, 139.3092°E)
Time: 22:47:08
(UTC+00:00)

ADEOS Rocket - Pass Details

Date: 21 April 2021
Orbit: 859 x 1305 km, 98.7° (Epoch: 10 May)

Event Time Altitude Azimuth Distance (km) Brightness Sun altitude
Exits shadow 18:23:53 31° 230° (SW) 1,745 3.7 -19.1°
Maximum altitude 18:25:47 37° 264° (W) 1,601 3.7 -18.8°
Drops below altitude 10° 18:32:05 10° 330° (NNW) 3,053 5.6 -17.7°
Sets 18:35:04 0° 339° (NNW) 4,084 6.4 -17.2°
